Starlink 4051

operational
NORAD ID: 53273 Int'l Des: 2022-086 Owner: SPXS Country: US Constellation: starlink
LEOCIRCULAR

About Starlink 4051

Description loading...

Live Position

Loading 3D Globe...

Upcoming Passes

Altitude History

Altitude vs Time

uPlot chart will show altitude changes over time

Two-Line Element Set

1 53273U 22086AH 25306.51486507 .00002606 00000-0 18164-3 0 9997
2 53273 53.2155 35.0292 0001275 85.3552 274.7586 15.08859785181990
Epoch: Nov 2, 2025 • Age: 12 hours

Current Status

Altitude 556.4 km
Velocity 7.58 km/s
Sub-Earth Point -46.53°S, 146.6°W
Launch Date Jul 24, 2022
Age 3.2 years
Type internet

Technical Details

Classification Payload
Mass 297.00 kg
Dry Mass 275.00 kg
Total Mass 297.00 kg
Length 0.20 m
Diameter 2.80 m
Span 9.00 m
Shape Box + pan
Manufacturer SPXS
Bus Type Starlink
Phase Status In Orbit
Owner/State SPXS/US

Large Constellations

Loading constellations...